• In Portugal
  • List of Countries
  • For 7 days
  • Water Temperature
  • Satellite Maps
  • Weather Map
  • Weather Widgets
  • user-avatar
    Login

    Hourly Weather Vanadzor

    Today, 22 January, Monday

    Time Temperature Precipitation Wind Pressure Humidity
    00:00 -4°C° 0 mm 3 mps 634 mmHg 66%
    01:00 -4°C° 0 mm 3 mps 634 mmHg 65%
    02:00 -4°C° 0 mm 3 mps 633 mmHg 64%
    03:00 -4°C° 0 mm 3 mps 633 mmHg 64%
    04:00 -4°C° 0 mm 3 mps 632 mmHg 63%
    05:00 -3°C° 0 mm 2 mps 632 mmHg 62%
    06:00 -3°C° 0 mm 2 mps 632 mmHg 61%
    07:00 -3°C° 0 mm 2 mps 632 mmHg 61%
    08:00 -2°C° 0 mm 2 mps 632 mmHg 60%
    09:00 -2°C° 0 mm 2 mps 632 mmHg 59%
    10:00 -1°C° 0 mm 2 mps 631 mmHg 58%
    11:00 +2°C° 0 mm 2 mps 631 mmHg 58%
    12:00 +3°C° 0 mm 2 mps 631 mmHg 57%
    13:00 +3°C° 0 mm 2 mps 631 mmHg 58%
    14:00 +3°C° 0 mm 2 mps 630 mmHg 59%
    15:00 +3°C° 0 mm 2 mps 630 mmHg 59%
    16:00 +2°C° 0 mm 2 mps 630 mmHg 59%
    17:00 -1°C° 0 mm 2 mps 629 mmHg 58%
    18:00 -2°C° 0 mm 2 mps 629 mmHg 57%
    19:00 -2°C° 0 mm 2 mps 629 mmHg 56%
    20:00 -3°C° 0 mm 2 mps 629 mmHg 55%
    21:00 -3°C° 0 mm 2 mps 629 mmHg 53%
    22:00 -5°C° 0 mm 3 mps 629 mmHg 54%
    23:00 -5°C° 0 mm 3 mps 629 mmHg 56%

    Tomorrow, 23 January, Tuesday

    Time Temperature Precipitation Wind Pressure Humidity
    00:00 -5°C° 0 mm 3 mps 629 mmHg 57%
    01:00 -5°C° 0 mm 3 mps 629 mmHg 58%
    02:00 -5°C° 0 mm 3 mps 629 mmHg 59%
    03:00 -5°C° 0 mm 3 mps 629 mmHg 60%
    04:00 -6°C° 0 mm 3 mps 629 mmHg 60%
    05:00 -6°C° 0 mm 3 mps 629 mmHg 60%
    06:00 -6°C° 0 mm 3 mps 629 mmHg 61%
    07:00 -5°C° 0 mm 3 mps 629 mmHg 60%
    08:00 -5°C° 0 mm 3 mps 629 mmHg 60%
    09:00 -4°C° 0 mm 3 mps 630 mmHg 60%
    10:00 -2°C° 0 mm 3 mps 630 mmHg 59%
    11:00 0°C° 0 mm 3 mps 630 mmHg 59%
    12:00 +1°C° 0 mm 3 mps 630 mmHg 58%
    13:00 +1°C° 0 mm 3 mps 629 mmHg 59%
    14:00 +1°C° 0 mm 3 mps 629 mmHg 60%
    15:00 +2°C° 0 mm 2 mps 629 mmHg 61%
    16:00 +1°C° 0 mm 2 mps 629 mmHg 62%
    17:00 -2°C° 0 mm 2 mps 629 mmHg 63%
    18:00 -3°C° 0 mm 2 mps 629 mmHg 64%
    19:00 -3°C° 0 mm 2 mps 629 mmHg 65%
    20:00 -2°C° 0 mm 2 mps 629 mmHg 66%
    21:00 -2°C° 0 mm 2 mps 629 mmHg 66%
    22:00 -2°C° 0 mm 2 mps 630 mmHg 67%
    23:00 -2°C° 0 mm 2 mps 630 mmHg 68%

    Day after tomorrow, 24 January, Wednesday

    Time Temperature Precipitation Wind Pressure Humidity
    00:00 -2°C° 0 mm 2 mps 630 mmHg 69%
    01:00 -3°C° 0.1 mm 2 mps 630 mmHg 70%
    02:00 -3°C° 0.1 mm 2 mps 630 mmHg 71%
    03:00 -3°C° 0.1 mm 2 mps 630 mmHg 72%
    04:00 -3°C° 0.1 mm 2 mps 631 mmHg 73%
    05:00 -3°C° 0.1 mm 2 mps 631 mmHg 75%
    06:00 -4°C° 0.1 mm 2 mps 631 mmHg 76%
    07:00 -1°C° 0.1 mm 1 mps 631 mmHg 76%
    08:00 -1°C° 0.1 mm 1 mps 632 mmHg 76%
    09:00 0°C° 0.1 mm 1 mps 632 mmHg 75%
    10:00 +1°C° 0.1 mm 1 mps 632 mmHg 74%
    11:00 +2°C° 0.1 mm 1 mps 633 mmHg 72%
    12:00 +2°C° 0.1 mm 2 mps 633 mmHg 71%
    13:00 +3°C° 0.1 mm 1 mps 633 mmHg 71%
    14:00 +3°C° 0.1 mm 1 mps 633 mmHg 72%
    15:00 +3°C° 0.1 mm 1 mps 633 mmHg 72%
    16:00 +2°C° 0.1 mm 1 mps 633 mmHg 75%
    17:00 0°C° 0.1 mm 1 mps 633 mmHg 77%
    18:00 -1°C° 0.1 mm 1 mps 633 mmHg 79%
    19:00 -1°C° 0 mm 1 mps 633 mmHg 80%
    20:00 -2°C° 0 mm 1 mps 633 mmHg 80%
    21:00 -2°C° 0 mm 1 mps 634 mmHg 80%
    22:00 -2°C° 0.1 mm 1 mps 634 mmHg 81%
    23:00 -3°C° 0.1 mm 0 mps 634 mmHg 81%

    25 January, Thursday

    Time Temperature Precipitation Wind Pressure Humidity
    00:00 -3°C° 0.1 mm 0 mps 634 mmHg 81%
    01:00 -2°C° 0.2 mm 1 mps 634 mmHg 83%
    02:00 -2°C° 0.2 mm 1 mps 634 mmHg 85%
    03:00 -2°C° 0.2 mm 1 mps 634 mmHg 87%
    04:00 -2°C° 0.1 mm 1 mps 634 mmHg 88%
    05:00 -2°C° 0.1 mm 1 mps 634 mmHg 89%
    06:00 -2°C° 0.1 mm 1 mps 634 mmHg 90%
    07:00 -2°C° 0.1 mm 1 mps 634 mmHg 90%
    08:00 -2°C° 0.1 mm 1 mps 635 mmHg 89%
    09:00 -3°C° 0.1 mm 2 mps 635 mmHg 88%
    10:00 -3°C° 0.2 mm 2 mps 635 mmHg 87%
    11:00 -2°C° 0.2 mm 2 mps 635 mmHg 85%
    12:00 -2°C° 0.2 mm 2 mps 635 mmHg 83%
    13:00 -2°C° 0.3 mm 2 mps 634 mmHg 84%
    14:00 -2°C° 0.3 mm 2 mps 634 mmHg 84%
    15:00 -2°C° 0.3 mm 2 mps 634 mmHg 85%
    16:00 -3°C° 0.2 mm 2 mps 634 mmHg 86%
    17:00 -3°C° 0.2 mm 2 mps 634 mmHg 88%
    18:00 -4°C° 0.2 mm 2 mps 634 mmHg 90%
    19:00 -4°C° 0.2 mm 2 mps 634 mmHg 90%
    20:00 -5°C° 0.2 mm 2 mps 634 mmHg 91%
    21:00 -5°C° 0.2 mm 2 mps 634 mmHg 91%
    22:00 -5°C° 0.2 mm 2 mps 634 mmHg 91%
    23:00 -5°C° 0.2 mm 2 mps 634 mmHg 92%

    26 January, Friday

    Time Temperature Precipitation Wind Pressure Humidity
    00:00 -5°C° 0.2 mm 2 mps 634 mmHg 92%
    01:00 -5°C° 0.2 mm 2 mps 634 mmHg 92%
    02:00 -5°C° 0.2 mm 2 mps 634 mmHg 92%
    03:00 -5°C° 0.2 mm 2 mps 634 mmHg 93%
    04:00 -5°C° 0.1 mm 2 mps 634 mmHg 93%
    05:00 -5°C° 0.1 mm 2 mps 634 mmHg 93%
    06:00 -5°C° 0.1 mm 2 mps 633 mmHg 93%
    07:00 -4°C° 0.2 mm 2 mps 634 mmHg 93%
    08:00 -4°C° 0.2 mm 2 mps 634 mmHg 92%
    09:00 -4°C° 0.2 mm 2 mps 634 mmHg 92%
    10:00 -4°C° 0.4 mm 2 mps 633 mmHg 92%
    11:00 -3°C° 0.4 mm 2 mps 633 mmHg 91%
    12:00 -3°C° 0.4 mm 2 mps 633 mmHg 91%
    13:00 -3°C° 0.3 mm 2 mps 633 mmHg 91%
    14:00 -3°C° 0.3 mm 2 mps 632 mmHg 91%
    15:00 -3°C° 0.3 mm 2 mps 632 mmHg 91%
    16:00 -3°C° 0.4 mm 2 mps 632 mmHg 91%
    17:00 -4°C° 0.4 mm 2 mps 633 mmHg 92%
    18:00 -4°C° 0.4 mm 2 mps 633 mmHg 93%
    19:00 -5°C° 0.3 mm 2 mps 633 mmHg 93%
    20:00 -5°C° 0.3 mm 2 mps 633 mmHg 93%
    21:00 -3°C° 0.3 mm 1 mps 633 mmHg 93%
    22:00 -3°C° 0.3 mm 1 mps 633 mmHg 93%
    23:00 -3°C° 0.3 mm 1 mps 633 mmHg 93%

    27 January, Saturday

    Time Temperature Precipitation Wind Pressure Humidity
    00:00 -3°C° 0.3 mm 1 mps 633 mmHg 93%
    01:00 -3°C° 0.2 mm 1 mps 633 mmHg 93%
    02:00 -3°C° 0.2 mm 1 mps 633 mmHg 93%
    03:00 -4°C° 0.2 mm 1 mps 633 mmHg 93%
    04:00 -4°C° 0.2 mm 1 mps 633 mmHg 93%
    05:00 -4°C° 0.2 mm 1 mps 633 mmHg 93%
    06:00 -4°C° 0.2 mm 1 mps 633 mmHg 93%
    07:00 -4°C° 0.2 mm 1 mps 634 mmHg 93%
    08:00 -3°C° 0.2 mm 1 mps 634 mmHg 92%
    09:00 -3°C° 0.2 mm 1 mps 634 mmHg 91%
    10:00 -2°C° 0.2 mm 1 mps 634 mmHg 90%
    11:00 -2°C° 0.2 mm 1 mps 634 mmHg 88%
    12:00 -3°C° 0.2 mm 2 mps 634 mmHg 87%
    13:00 -3°C° 0.2 mm 2 mps 634 mmHg 86%
    14:00 -3°C° 0.2 mm 2 mps 634 mmHg 86%
    15:00 -3°C° 0.2 mm 2 mps 634 mmHg 86%
    16:00 -1°C° 0.2 mm 1 mps 634 mmHg 89%
    17:00 -2°C° 0.2 mm 1 mps 634 mmHg 91%
    18:00 -3°C° 0.2 mm 1 mps 635 mmHg 93%
    19:00 -3°C° 0.2 mm 1 mps 635 mmHg 93%
    20:00 -3°C° 0.2 mm 1 mps 635 mmHg 93%
    21:00 -4°C° 0.2 mm 1 mps 635 mmHg 93%
    22:00 -4°C° 0.1 mm 1 mps 635 mmHg 93%
    23:00 -4°C° 0.1 mm 1 mps 635 mmHg 93%
    Show more